This is the latest recevied weather packets stored in our database for station/object N8SDR. If no packets are shown the sender has not sent any weather packets the latest 1 day(s).
| Time | Temp. | Humidity | Pressure | Rain* | Wind** | Luminosity | Snow |
|---|---|---|---|---|---|---|---|
| 1778030828 | 15° C | 99% | 1004 hPa | 0 mm | 0 m/s | 0 W/m² | - |
| 1778030525 | 15° C | 99% | 1003.7 hPa | 1.27 mm | 0 m/s | 0 W/m² | - |
| 1778030223 | 15° C | 99% | 1003.5 hPa | 3.05 mm | 0 m/s | 0 W/m² | - |
| 1778029918 | 15° C | 99% | 1003.5 hPa | 3.05 mm | 0 m/s | 0 W/m² | - |
| 1778029617 | 15° C | 99% | 1003.9 hPa | 4.83 mm | 0 m/s | 0 W/m² | - |
| 1778029314 | 15° C | 99% | 1003.8 hPa | 6.6 mm | 0 m/s | 0 W/m² | - |
| 1778029011 | 15.56° C | 99% | 1004 hPa | 6.1 mm | 0 m/s | 0 W/m² | - |
| 1778028708 | 15.56° C | 99% | 1003.9 hPa | 6.1 mm | 0 m/s | 0 W/m² | - |
| 1778028404 | 15.56° C | 99% | 1004.1 hPa | 4.32 mm | 0 m/s | 0 W/m² | - |
| 1778028101 | 15.56° C | 99% | 1004.1 hPa | 1.27 mm | 0 m/s | 0 W/m² | - |
| 1778027797 | 15.56° C | 99% | 1003.9 hPa | 0 mm | 0 m/s | 0 W/m² | - |
| 1778027494 | 15.56° C | 99% | 1003.8 hPa | 0 mm | 0 m/s | 0 W/m² | - |
| 1778027190 | 15.56° C | 99% | 1003.7 hPa | 0 mm | 0 m/s | 0 W/m² | - |
| 1778026886 | 15.56° C | 99% | 1003.4 hPa | 1.78 mm | 0 m/s | 0 W/m² | - |
| 1778026582 | 15.56° C | 99% | 1003.3 hPa | 1.78 mm | 0 m/s | 0 W/m² | - |
| 1778026279 | 15.56° C | 99% | 1003.3 hPa | 1.27 mm | 0 m/s | 1 W/m² | - |
| 1778025977 | 15.56° C | 99% | 1003.4 hPa | 1.78 mm | 0 m/s | 2 W/m² | - |
| 1778025674 | 15.56° C | 99% | 1003.2 hPa | 4.83 mm | 0 m/s | 3 W/m² | - |
| 1778025372 | 15.56° C | 99% | 1003.4 hPa | 1.27 mm | 0.45 m/s, 223° | 4 W/m² | - |
| 1778025069 | 16.11° C | 99% | 1003.5 hPa | 0 mm | 0 m/s | 4 W/m² | - |
| 1778024766 | 16.11° C | 99% | 1003.5 hPa | 0 mm | 0 m/s | 3 W/m² | - |
| 1778024462 | 16.11° C | 99% | 1003.4 hPa | 1.78 mm | 0 m/s | 5 W/m² | - |
| 1778024160 | 16.11° C | 99% | 1003.7 hPa | 3.05 mm | 0.45 m/s, 208° | 4 W/m² | - |
| 1778023857 | 16.11° C | 99% | 1003.5 hPa | 3.05 mm | 0 m/s | 12 W/m² | - |
| 1778023555 | 16.11° C | 99% | 1003.4 hPa | 3.05 mm | 0 m/s | 21 W/m² | - |
* Rain latest hour (hover to see other rain measurements)
** Current wind speed in m/s (hover to see current wind gust speed)